Simultaneous Nadir Overpasses (SNOs) Predictions

Prediction of SNOs between NOAA-20 and AQUA Satellite Orbit:

Table of predicted SNOs for the next 14.0 days since TLE Epoch: 4/5/2025
Index Date (NOAA-20) Time (NOAA-20) Lat,Lon (NOAA-20) SZA (NOAA-20 ) Date (AQUA) Time (AQUA) Lat,Lon (AQUA) SZA (AQUA ) Distance(km) Time Diff (sec)
1 04/06/2025 23:55:41 81.31, 113.02 80.05 04/06/2025 23:56:50 81.31, 112.91 80.03 1.83 69
2 04/07/2025 00:46:25 -81.31, -79.71 99.96 04/07/2025 00:46:08 -81.30, -79.53 99.98 3.09 17
3 04/09/2025 10:17:24 -81.31, 137.76 100.90 04/09/2025 10:17:37 -81.31, 137.94 100.93 3.18 13
4 04/09/2025 11:08:08 81.31, -54.54 79.04 04/09/2025 11:06:56 81.30, -54.72 79.10 3.27 72
5 04/11/2025 19:48:23 -81.31, -4.88 101.81 04/11/2025 19:49:05 -81.31, -4.95 101.83 1.20 42
6 04/11/2025 20:39:07 81.30, 162.79 78.13 04/11/2025 20:38:23 81.31, 162.75 78.16 0.87 44
7 04/14/2025 05:19:22 -81.31,-147.61 102.70 04/14/2025 05:20:31 -81.31,-147.80 102.71 3.27 69
8 04/14/2025 06:10:06 81.31, 20.02 77.25 04/14/2025 06:09:49 81.31, 19.87 77.28 2.46 17
9 04/16/2025 15:41:05 81.31,-122.85 76.40 04/16/2025 15:41:13 81.30,-122.98 76.42 2.15 8
10 04/19/2025 01:12:04 81.31, 94.18 75.59 04/19/2025 01:12:35 81.30, 94.20 75.57 0.59 31



Historial Predications of SNOs between NOAA-20 and AQUA
